Time,TemperatureF,DewpointF,PressureIn,WindDirection,WindDirectionDegrees,WindSpeedMPH,WindSpeedGustMPH,Humidity,HourlyPrecipIn,Conditions,Clouds,dailyrainin,SoftwareType,DateUTC
2013-08-10 00:01:00,64.9,56.4,30.11,NNW,329,0.0,8.0,74,0.00,,,0.00,Wunderground v.1.15,2013-08-10 05:01:00,
2013-08-10 00:07:00,64.7,56.2,30.11,NNW,330,0.0,8.0,74,0.00,,,0.00,Wunderground v.1.15,2013-08-10 05:07:00,
2013-08-10 00:14:00,64.4,56.3,30.11,East,81,0.0,8.0,75,0.00,,,0.00,Wunderground v.1.15,2013-08-10 05:14:00,
2013-08-10 00:19:00,64.3,56.2,30.11,NE,56,0.0,8.0,75,0.00,,,0.00,Wunderground v.1.15,2013-08-10 05:19:00,
2013-08-10 00:25:00,64.1,56.0,30.11,WNW,285,0.0,8.0,75,0.00,,,0.00,Wunderground v.1.15,2013-08-10 05:25:00,
2013-08-10 00:32:00,63.7,55.6,30.11,NW,324,0.0,8.0,75,0.00,,,0.00,Wunderground v.1.15,2013-08-10 05:32:00,
2013-08-10 00:37:00,63.5,55.4,30.11,North,6,0.0,8.0,75,0.00,,,0.00,Wunderground v.1.15,2013-08-10 05:37:00,
2013-08-10 00:43:00,63.3,55.6,30.11,NE,37,0.0,8.0,76,0.00,,,0.00,Wunderground v.1.15,2013-08-10 05:43:00,
2013-08-10 00:50:00,63.0,55.3,30.12,NE,37,0.0,8.0,76,0.00,,,0.00,Wunderground v.1.15,2013-08-10 05:50:00,
2013-08-10 00:55:00,62.6,55.3,30.12,NE,37,0.0,8.0,77,0.00,,,0.00,Wunderground v.1.15,2013-08-10 05:55:00,
2013-08-10 01:02:00,62.3,55.4,30.12,NE,37,0.0,8.0,78,0.00,,,0.00,Wunderground v.1.15,2013-08-10 06:02:00,
2013-08-10 01:08:00,62.0,55.4,30.12,NE,37,0.0,8.0,79,0.00,,,0.00,Wunderground v.1.15,2013-08-10 06:08:00,
2013-08-10 01:13:00,61.6,55.4,30.12,NE,37,0.0,8.0,80,0.00,,,0.00,Wunderground v.1.15,2013-08-10 06:13:00,
2013-08-10 01:20:00,61.4,55.2,30.12,NE,37,0.0,8.0,80,0.00,,,0.00,Wunderground v.1.15,2013-08-10 06:20:00,
2013-08-10 01:25:00,61.1,55.2,30.12,NE,37,0.0,8.0,81,0.00,,,0.00,Wunderground v.1.15,2013-08-10 06:25:00,
2013-08-10 01:31:00,60.8,55.3,30.12,NE,37,0.0,8.0,82,0.00,,,0.00,Wunderground v.1.15,2013-08-10 06:31:00,
2013-08-10 01:38:00,60.5,55.0,30.13,NE,37,0.0,8.0,82,0.00,,,0.00,Wunderground v.1.15,2013-08-10 06:38:00,
2013-08-10 01:43:00,60.1,55.2,30.13,NE,37,0.0,8.0,84,0.00,,,0.00,Wunderground v.1.15,2013-08-10 06:43:00,
2013-08-10 01:49:00,60.0,55.2,30.13,NE,37,0.0,8.0,84,0.00,,,0.00,Wunderground v.1.15,2013-08-10 06:49:00,
2013-08-10 01:56:00,59.9,55.4,30.13,NE,37,0.0,8.0,85,0.00,,,0.00,Wunderground v.1.15,2013-08-10 06:56:00,
2013-08-10 02:01:00,59.7,55.5,30.13,NE,37,0.0,8.0,86,0.00,,,0.00,Wunderground v.1.15,2013-08-10 07:01:00,
2013-08-10 02:08:00,59.6,55.4,30.13,NE,37,0.0,8.0,86,0.00,,,0.00,Wunderground v.1.15,2013-08-10 07:08:00,
2013-08-10 02:13:00,59.3,55.1,30.13,NE,37,0.0,8.0,86,0.00,,,0.00,Wunderground v.1.15,2013-08-10 07:13:00,
2013-08-10 02:19:00,59.1,55.2,30.13,NE,37,0.0,8.0,87,0.00,,,0.00,Wunderground v.1.15,2013-08-10 07:19:00,
2013-08-10 02:26:00,59.0,55.1,30.13,NE,37,0.0,8.0,87,0.00,,,0.00,Wunderground v.1.15,2013-08-10 07:26:00,
2013-08-10 02:31:00,58.8,54.9,30.13,NE,37,0.0,8.0,87,0.00,,,0.00,Wunderground v.1.15,2013-08-10 07:31:00,
2013-08-10 02:37:00,58.8,54.9,30.13,NE,37,0.0,8.0,87,0.00,,,0.00,Wunderground v.1.15,2013-08-10 07:37:00,
2013-08-10 02:44:00,58.6,55.1,30.13,NE,37,0.0,8.0,88,0.00,,,0.00,Wunderground v.1.15,2013-08-10 07:44:00,
2013-08-10 02:49:00,58.4,54.9,30.13,NE,37,0.0,8.0,88,0.00,,,0.00,Wunderground v.1.15,2013-08-10 07:49:00,
2013-08-10 02:55:00,58.2,54.7,30.13,NE,37,0.0,8.0,88,0.00,,,0.00,Wunderground v.1.15,2013-08-10 07:55:00,
2013-08-10 03:02:00,58.1,54.9,30.13,NE,37,0.0,8.0,89,0.00,,,0.00,Wunderground v.1.15,2013-08-10 08:02:00,
2013-08-10 03:07:00,57.9,54.7,30.13,NE,37,0.0,8.0,89,0.00,,,0.00,Wunderground v.1.15,2013-08-10 08:07:00,
2013-08-10 03:13:00,57.8,54.6,30.14,NE,37,0.0,8.0,89,0.00,,,0.00,Wunderground v.1.15,2013-08-10 08:13:00,
2013-08-10 03:20:00,57.7,54.5,30.14,NE,37,0.0,8.0,89,0.00,,,0.00,Wunderground v.1.15,2013-08-10 08:20:00,
2013-08-10 03:25:00,57.6,54.4,30.14,NE,37,0.0,8.0,89,0.00,,,0.00,Wunderground v.1.15,2013-08-10 08:25:00,
2013-08-10 03:32:00,57.4,54.2,30.14,NE,37,0.0,8.0,89,0.00,,,0.00,Wunderground v.1.15,2013-08-10 08:32:00,
2013-08-10 03:37:00,57.3,54.4,30.14,NE,37,0.0,8.0,90,0.00,,,0.00,Wunderground v.1.15,2013-08-10 08:37:00,
2013-08-10 03:43:00,57.2,54.3,30.15,NE,37,0.0,8.0,90,0.00,,,0.00,Wunderground v.1.15,2013-08-10 08:43:00,
2013-08-10 03:50:00,57.2,54.3,30.15,NE,37,0.0,8.0,90,0.00,,,0.00,Wunderground v.1.15,2013-08-10 08:50:00,
2013-08-10 03:55:00,57.1,54.2,30.15,NE,37,0.0,8.0,90,0.00,,,0.00,Wunderground v.1.15,2013-08-10 08:55:00,
2013-08-10 04:01:00,57.0,54.1,30.15,NE,37,0.0,8.0,90,0.00,,,0.00,Wunderground v.1.15,2013-08-10 09:01:00,
2013-08-10 04:08:00,56.9,54.3,30.15,NE,37,0.0,8.0,91,0.00,,,0.00,Wunderground v.1.15,2013-08-10 09:08:00,
2013-08-10 04:13:00,56.9,54.3,30.15,NE,37,0.0,8.0,91,0.00,,,0.00,Wunderground v.1.15,2013-08-10 09:13:00,
2013-08-10 04:19:00,56.8,54.2,30.15,NE,37,0.0,8.0,91,0.00,,,0.00,Wunderground v.1.15,2013-08-10 09:19:00,
2013-08-10 04:26:00,56.6,54.0,30.15,NE,37,0.0,8.0,91,0.00,,,0.00,Wunderground v.1.15,2013-08-10 09:26:00,
2013-08-10 04:31:00,56.5,53.9,30.15,NE,37,0.0,8.0,91,0.00,,,0.00,Wunderground v.1.15,2013-08-10 09:31:00,
2013-08-10 04:37:00,56.4,53.8,30.15,NE,37,0.0,8.0,91,0.00,,,0.00,Wunderground v.1.15,2013-08-10 09:37:00,
2013-08-10 04:44:00,56.4,53.8,30.15,NE,37,0.0,8.0,91,0.00,,,0.00,Wunderground v.1.15,2013-08-10 09:44:00,
2013-08-10 04:49:00,56.3,54.0,30.15,NE,37,0.0,8.0,92,0.00,,,0.00,Wunderground v.1.15,2013-08-10 09:49:00,
2013-08-10 04:55:00,56.1,53.8,30.15,NE,37,0.0,8.0,92,0.00,,,0.00,Wunderground v.1.15,2013-08-10 09:55:00,
2013-08-10 05:02:00,56.0,53.7,30.15,NE,37,0.0,8.0,92,0.00,,,0.00,Wunderground v.1.15,2013-08-10 10:02:00,
2013-08-10 05:07:00,55.8,53.5,30.15,NE,37,0.0,8.0,92,0.00,,,0.00,Wunderground v.1.15,2013-08-10 10:07:00,
2013-08-10 05:13:00,55.7,53.7,30.15,NE,37,0.0,8.0,93,0.00,,,0.00,Wunderground v.1.15,2013-08-10 10:13:00,
2013-08-10 05:20:00,55.7,53.7,30.15,NE,37,0.0,8.0,93,0.00,,,0.00,Wunderground v.1.15,2013-08-10 10:20:00,
2013-08-10 05:26:00,55.5,53.5,30.15,NE,37,0.0,8.0,93,0.00,,,0.00,Wunderground v.1.15,2013-08-10 10:26:00,
2013-08-10 05:31:00,55.5,53.5,30.14,NE,37,0.0,8.0,93,0.00,,,0.00,Wunderground v.1.15,2013-08-10 10:31:00,
2013-08-10 05:38:00,55.5,53.8,30.14,NE,37,0.0,8.0,94,0.00,,,0.00,Wunderground v.1.15,2013-08-10 10:38:00,
2013-08-10 05:44:00,55.6,53.6,30.15,NE,37,0.0,8.0,93,0.00,,,0.00,Wunderground v.1.15,2013-08-10 10:44:00,
2013-08-10 05:49:00,55.5,53.5,30.15,NE,37,0.0,8.0,93,0.00,,,0.00,Wunderground v.1.15,2013-08-10 10:49:00,
2013-08-10 05:56:00,55.3,53.6,30.15,NE,37,0.0,8.0,94,0.00,,,0.00,Wunderground v.1.15,2013-08-10 10:56:00,
2013-08-10 06:02:00,55.3,53.6,30.15,NE,37,0.0,8.0,94,0.00,,,0.00,Wunderground v.1.15,2013-08-10 11:02:00,
2013-08-10 06:07:00,55.1,53.4,30.15,NE,37,0.0,8.0,94,0.00,,,0.00,Wunderground v.1.15,2013-08-10 11:07:00,
2013-08-10 06:14:00,55.0,53.3,30.15,NE,37,0.0,8.0,94,0.00,,,0.00,Wunderground v.1.15,2013-08-10 11:14:00,
2013-08-10 06:20:00,54.9,53.2,30.15,NE,37,0.0,8.0,94,0.00,,,0.00,Wunderground v.1.15,2013-08-10 11:20:00,
2013-08-10 06:25:00,54.9,53.2,30.15,NE,37,0.0,8.0,94,0.00,,,0.00,Wunderground v.1.15,2013-08-10 11:25:00,
2013-08-10 06:31:00,54.8,53.4,30.15,NE,37,0.0,8.0,95,0.00,,,0.00,Wunderground v.1.15,2013-08-10 11:31:00,
2013-08-10 06:38:00,54.9,53.5,30.15,NE,37,0.0,8.0,95,0.00,,,0.00,Wunderground v.1.15,2013-08-10 11:38:00,
2013-08-10 06:43:00,54.9,53.5,30.15,NE,37,0.0,8.0,95,0.00,,,0.00,Wunderground v.1.15,2013-08-10 11:43:00,
2013-08-10 06:49:00,55.0,53.6,30.15,NE,37,0.0,8.0,95,0.00,,,0.00,Wunderground v.1.15,2013-08-10 11:49:00,
2013-08-10 06:55:00,55.2,53.8,30.15,NE,37,0.0,8.0,95,0.00,,,0.00,Wunderground v.1.15,2013-08-10 11:55:00,
2013-08-10 07:01:00,55.4,54.0,30.15,NE,37,0.0,8.0,95,0.00,,,0.00,Wunderground v.1.15,2013-08-10 12:01:00,
2013-08-10 07:08:00,55.7,54.0,30.15,NE,37,0.0,8.0,94,0.00,,,0.00,Wunderground v.1.15,2013-08-10 12:08:00,
2013-08-10 07:14:00,56.0,54.3,30.15,NE,37,0.0,8.0,94,0.00,,,0.00,Wunderground v.1.15,2013-08-10 12:14:00,
2013-08-10 07:19:00,56.3,54.6,30.15,NE,37,0.0,8.0,94,0.00,,,0.00,Wunderground v.1.15,2013-08-10 12:19:00,
2013-08-10 07:26:00,56.7,54.7,30.15,NE,37,0.0,8.0,93,0.00,,,0.00,Wunderground v.1.15,2013-08-10 12:26:00,
2013-08-10 07:31:00,57.5,55.2,30.15,NE,37,0.0,8.0,92,0.00,,,0.00,Wunderground v.1.15,2013-08-10 12:31:00,
2013-08-10 07:37:00,58.4,55.5,30.15,NNE,32,0.0,8.0,90,0.00,,,0.00,Wunderground v.1.15,2013-08-10 12:37:00,
2013-08-10 07:44:00,59.0,55.4,30.15,NNE,32,0.0,8.0,88,0.00,,,0.00,Wunderground v.1.15,2013-08-10 12:44:00,
2013-08-10 07:49:00,59.9,55.7,30.15,NNE,29,0.0,8.0,86,0.00,,,0.00,Wunderground v.1.15,2013-08-10 12:49:00,
2013-08-10 07:55:00,60.7,56.2,30.15,NE,41,0.0,8.0,85,0.00,,,0.00,Wunderground v.1.15,2013-08-10 12:55:00,
2013-08-10 08:02:00,61.4,56.2,30.15,ENE,64,0.0,8.0,83,0.00,,,0.00,Wunderground v.1.15,2013-08-10 13:02:00,
2013-08-10 08:07:00,61.8,56.2,30.15,WNW,302,0.0,8.0,82,0.00,,,0.00,Wunderground v.1.15,2013-08-10 13:07:00,
2013-08-10 08:13:00,62.2,56.6,30.16,North,353,0.0,8.0,82,0.00,,,0.00,Wunderground v.1.15,2013-08-10 13:13:00,
2013-08-10 08:20:00,62.6,56.7,30.16,North,349,0.0,8.0,81,0.00,,,0.00,Wunderground v.1.15,2013-08-10 13:20:00,
2013-08-10 08:25:00,63.0,56.7,30.16,NNW,348,0.0,8.0,80,0.00,,,0.00,Wunderground v.1.15,2013-08-10 13:25:00,
2013-08-10 08:31:00,63.5,56.9,30.16,NW,307,0.0,8.0,79,0.00,,,0.00,Wunderground v.1.15,2013-08-10 13:31:00,
2013-08-10 08:38:00,63.9,57.3,30.17,WSW,245,0.0,8.0,79,0.00,,,0.00,Wunderground v.1.15,2013-08-10 13:38:00,
2013-08-10 08:43:00,64.3,56.6,30.16,SW,221,0.0,8.0,76,0.00,,,0.00,Wunderground v.1.15,2013-08-10 13:43:00,
2013-08-10 08:49:00,64.9,56.8,30.16,NNE,32,0.0,8.0,75,0.00,,,0.00,Wunderground v.1.15,2013-08-10 13:49:00,
2013-08-10 08:56:00,65.1,56.6,30.16,WSW,242,0.0,8.0,74,0.00,,,0.00,Wunderground v.1.15,2013-08-10 13:56:00,
2013-08-10 09:01:00,65.5,56.2,30.16,NE,51,0.0,8.0,72,0.00,,,0.00,Wunderground v.1.15,2013-08-10 14:01:00,
2013-08-10 09:07:00,65.8,56.9,30.17,WSW,256,1.0,8.0,73,0.00,,,0.00,Wunderground v.1.15,2013-08-10 14:07:00,
2013-08-10 09:14:00,66.0,56.7,30.17,West,273,1.0,8.0,72,0.00,,,0.00,Wunderground v.1.15,2013-08-10 14:14:00,
2013-08-10 09:19:00,66.3,56.2,30.17,East,91,1.0,8.0,70,0.00,,,0.00,Wunderground v.1.15,2013-08-10 14:19:00,
2013-08-10 09:25:00,66.7,56.6,30.17,WSW,253,0.0,8.0,70,0.00,,,0.00,Wunderground v.1.15,2013-08-10 14:25:00,
2013-08-10 09:32:00,67.2,56.7,30.17,ENE,58,0.0,8.0,69,0.00,,,0.00,Wunderground v.1.15,2013-08-10 14:32:00,
2013-08-10 09:37:00,67.5,56.2,30.17,NW,315,1.0,8.0,67,0.00,,,0.00,Wunderground v.1.15,2013-08-10 14:37:00,
2013-08-10 09:43:00,68.0,56.2,30.17,NNE,26,0.0,8.0,66,0.00,,,0.00,Wunderground v.1.15,2013-08-10 14:43:00,
2013-08-10 09:50:00,68.3,55.6,30.17,NE,49,0.0,8.0,64,0.00,,,0.00,Wunderground v.1.15,2013-08-10 14:50:00,
2013-08-10 09:55:00,68.8,55.7,30.17,ENE,67,1.0,8.0,63,0.00,,,0.00,Wunderground v.1.15,2013-08-10 14:55:00,
2013-08-10 10:02:00,69.0,55.4,30.17,East,84,2.0,8.0,62,0.00,,,0.00,Wunderground v.1.15,2013-08-10 15:02:00,
2013-08-10 10:08:00,69.2,55.2,30.17,NNE,18,1.0,8.0,61,0.00,,,0.00,Wunderground v.1.15,2013-08-10 15:08:00,
2013-08-10 10:13:00,69.5,55.5,30.17,NE,53,1.0,8.0,61,0.00,,,0.00,Wunderground v.1.15,2013-08-10 15:13:00,
2013-08-10 10:19:00,69.9,56.7,30.18,ENE,57,1.0,8.0,63,0.00,,,0.00,Wunderground v.1.15,2013-08-10 15:19:00,
2013-08-10 10:26:00,70.3,55.8,30.18,WSW,254,0.0,8.0,60,0.00,,,0.00,Wunderground v.1.15,2013-08-10 15:26:00,
2013-08-10 10:31:00,70.2,55.2,30.18,West,263,1.0,8.0,59,0.00,,,0.00,Wunderground v.1.15,2013-08-10 15:31:00,
2013-08-10 10:37:00,70.6,55.1,30.18,SW,235,2.0,8.0,58,0.00,,,0.00,Wunderground v.1.15,2013-08-10 15:37:00,
2013-08-10 10:44:00,71.1,55.1,30.18,NW,310,1.0,8.0,57,0.00,,,0.00,Wunderground v.1.15,2013-08-10 15:44:00,
2013-08-10 10:49:00,71.4,54.9,30.18,NE,46,1.0,8.0,56,0.00,,,0.00,Wunderground v.1.15,2013-08-10 15:49:00,
2013-08-10 10:55:00,71.6,54.6,30.18,WSW,250,2.0,8.0,55,0.00,,,0.00,Wunderground v.1.15,2013-08-10 15:55:00,
2013-08-10 11:02:00,71.8,55.3,30.18,WNW,295,1.0,8.0,56,0.00,,,0.00,Wunderground v.1.15,2013-08-10 16:02:00,
2013-08-10 11:07:00,72.0,54.4,30.18,SW,228,1.0,8.0,54,0.00,,,0.00,Wunderground v.1.15,2013-08-10 16:07:00,
2013-08-10 11:13:00,72.1,54.0,30.18,SW,215,2.0,8.0,53,0.00,,,0.00,Wunderground v.1.15,2013-08-10 16:13:00,
2013-08-10 11:20:00,72.5,54.4,30.18,West,274,2.0,2.0,53,0.00,,,0.00,Wunderground v.1.15,2013-08-10 16:20:00,
2013-08-10 11:25:00,73.0,54.9,30.18,NE,46,1.0,8.0,53,0.00,,,0.00,Wunderground v.1.15,2013-08-10 16:25:00,
2013-08-10 11:32:00,73.3,54.6,30.18,NW,322,1.0,8.0,52,0.00,,,0.00,Wunderground v.1.15,2013-08-10 16:32:00,
2013-08-10 11:38:00,73.4,54.2,30.18,SW,221,1.0,8.0,51,0.00,,,0.00,Wunderground v.1.15,2013-08-10 16:38:00,
2013-08-10 11:43:00,73.5,55.3,30.18,WSW,251,2.0,8.0,53,0.00,,,0.00,Wunderground v.1.15,2013-08-10 16:43:00,
2013-08-10 11:49:00,73.5,54.8,30.18,West,267,3.0,3.0,52,0.00,,,0.00,Wunderground v.1.15,2013-08-10 16:49:00,
2013-08-10 11:56:00,74.0,54.7,30.18,West,262,2.0,8.0,51,0.00,,,0.00,Wunderground v.1.15,2013-08-10 16:56:00,
2013-08-10 12:01:00,73.8,55.1,30.18,NW,311,2.0,8.0,52,0.00,,,0.00,Wunderground v.1.15,2013-08-10 17:01:00,
2013-08-10 12:08:00,74.2,56.0,30.18,NNW,329,2.0,8.0,53,0.00,,,0.00,Wunderground v.1.15,2013-08-10 17:08:00,
2013-08-10 12:13:00,74.3,55.5,30.18,West,278,2.0,8.0,52,0.00,,,0.00,Wunderground v.1.15,2013-08-10 17:13:00,
2013-08-10 12:19:00,74.7,55.4,30.18,West,262,2.0,2.0,51,0.00,,,0.00,Wunderground v.1.15,2013-08-10 17:19:00,
2013-08-10 12:26:00,75.2,56.4,30.17,NNE,23,1.0,8.0,52,0.00,,,0.00,Wunderground v.1.15,2013-08-10 17:26:00,
2013-08-10 12:31:00,75.4,54.3,30.17,WSW,258,2.0,8.0,48,0.00,,,0.00,Wunderground v.1.15,2013-08-10 17:31:00,
2013-08-10 12:38:00,75.2,55.3,30.17,WSW,239,2.0,8.0,50,0.00,,,0.00,Wunderground v.1.15,2013-08-10 17:38:00,
2013-08-10 12:44:00,75.7,54.6,30.17,ENE,72,1.0,8.0,48,0.00,,,0.00,Wunderground v.1.15,2013-08-10 17:44:00,
2013-08-10 12:49:00,75.8,55.8,30.17,West,270,2.0,2.0,50,0.00,,,0.00,Wunderground v.1.15,2013-08-10 17:49:00,
2013-08-10 12:56:00,75.7,55.7,30.17,West,277,2.0,8.0,50,0.00,,,0.00,Wunderground v.1.15,2013-08-10 17:56:00,
2013-08-10 13:02:00,76.0,55.5,30.16,West,267,1.0,8.0,49,0.00,,,0.00,Wunderground v.1.15,2013-08-10 18:02:00,
2013-08-10 13:07:00,76.4,56.4,30.17,WNW,285,2.0,8.0,50,0.00,,,0.00,Wunderground v.1.15,2013-08-10 18:07:00,
2013-08-10 13:14:00,76.9,55.7,30.17,WSW,245,2.0,8.0,48,0.00,,,0.00,Wunderground v.1.15,2013-08-10 18:14:00,
2013-08-10 13:20:00,76.9,56.3,30.17,WNW,283,2.0,2.0,49,0.00,,,0.00,Wunderground v.1.15,2013-08-10 18:20:00,
2013-08-10 13:25:00,76.3,55.7,30.17,WSW,256,2.0,8.0,49,0.00,,,0.00,Wunderground v.1.15,2013-08-10 18:25:00,
2013-08-10 13:32:00,75.9,56.5,30.16,NNE,32,2.0,8.0,51,0.00,,,0.00,Wunderground v.1.15,2013-08-10 18:32:00,
2013-08-10 13:37:00,76.6,56.0,30.16,NW,315,1.0,8.0,49,0.00,,,0.00,Wunderground v.1.15,2013-08-10 18:37:00,
2013-08-10 13:43:00,76.4,55.8,30.16,SSW,212,2.0,8.0,49,0.00,,,0.00,Wunderground v.1.15,2013-08-10 18:43:00,
2013-08-10 13:50:00,77.0,56.4,30.16,WSW,253,2.0,8.0,49,0.00,,,0.00,Wunderground v.1.15,2013-08-10 18:50:00,
2013-08-10 13:55:00,76.5,56.5,30.16,WSW,256,3.0,8.0,50,0.00,,,0.00,Wunderground v.1.15,2013-08-10 18:55:00,
2013-08-10 14:01:00,76.6,56.0,30.16,West,262,3.0,8.0,49,0.00,,,0.00,Wunderground v.1.15,2013-08-10 19:01:00,
2013-08-10 14:08:00,76.7,56.1,30.16,West,259,3.0,8.0,49,0.00,,,0.00,Wunderground v.1.15,2013-08-10 19:08:00,
2013-08-10 14:13:00,76.6,56.6,30.16,SW,228,3.0,8.0,50,0.00,,,0.00,Wunderground v.1.15,2013-08-10 19:13:00,
2013-08-10 14:19:00,77.8,57.1,30.16,NW,310,2.0,8.0,49,0.00,,,0.00,Wunderground v.1.15,2013-08-10 19:19:00,
2013-08-10 14:26:00,77.5,56.3,30.15,West,264,3.0,8.0,48,0.00,,,0.00,Wunderground v.1.15,2013-08-10 19:26:00,
2013-08-10 14:31:00,77.7,57.6,30.15,West,272,3.0,8.0,50,0.00,,,0.00,Wunderground v.1.15,2013-08-10 19:31:00,
2013-08-10 14:37:00,78.6,57.3,30.15,WNW,297,2.0,8.0,48,0.00,,,0.00,Wunderground v.1.15,2013-08-10 19:37:00,
2013-08-10 14:44:00,77.2,56.6,30.15,NNW,348,2.0,8.0,49,0.00,,,0.00,Wunderground v.1.15,2013-08-10 19:44:00,
2013-08-10 14:49:00,77.7,57.6,30.15,SW,219,1.0,8.0,50,0.00,,,0.00,Wunderground v.1.15,2013-08-10 19:49:00,
2013-08-10 14:55:00,77.6,57.5,30.15,West,262,2.0,8.0,50,0.00,,,0.00,Wunderground v.1.15,2013-08-10 19:55:00,
2013-08-10 15:02:00,77.5,56.8,30.15,WNW,302,3.0,4.0,49,0.00,,,0.00,Wunderground v.1.15,2013-08-10 20:02:00,
2013-08-10 15:07:00,77.6,57.5,30.15,WSW,252,2.0,8.0,50,0.00,,,0.00,Wunderground v.1.15,2013-08-10 20:07:00,
2013-08-10 15:13:00,77.5,57.4,30.14,WNW,297,3.0,8.0,50,0.00,,,0.00,Wunderground v.1.15,2013-08-10 20:13:00,
2013-08-10 15:20:00,77.5,57.4,30.14,WSW,256,2.0,2.0,50,0.00,,,0.00,Wunderground v.1.15,2013-08-10 20:20:00,
2013-08-10 15:25:00,78.0,57.3,30.14,NW,308,2.0,8.0,49,0.00,,,0.00,Wunderground v.1.15,2013-08-10 20:25:00,
2013-08-10 15:31:00,78.7,59.0,30.13,SW,221,2.0,8.0,51,0.00,,,0.00,Wunderground v.1.15,2013-08-10 20:31:00,
2013-08-10 15:38:00,78.4,58.2,30.13,SW,235,2.0,8.0,50,0.00,,,0.00,Wunderground v.1.15,2013-08-10 20:38:00,
2013-08-10 15:43:00,78.1,57.9,30.13,WSW,246,2.0,8.0,50,0.00,,,0.00,Wunderground v.1.15,2013-08-10 20:43:00,
2013-08-10 15:49:00,77.7,58.1,30.13,WSW,240,2.0,8.0,51,0.00,,,0.00,Wunderground v.1.15,2013-08-10 20:49:00,
2013-08-10 15:56:00,77.9,59.4,30.13,WSW,256,3.0,8.0,53,0.00,,,0.00,Wunderground v.1.15,2013-08-10 20:56:00,
2013-08-10 16:01:00,78.8,59.1,30.13,NW,305,3.0,8.0,51,0.00,,,0.00,Wunderground v.1.15,2013-08-10 21:01:00,
2013-08-10 16:07:00,78.8,58.6,30.13,West,263,3.0,8.0,50,0.00,,,0.00,Wunderground v.1.15,2013-08-10 21:07:00,
2013-08-10 16:14:00,78.4,58.8,30.12,WNW,287,3.0,8.0,51,0.00,,,0.00,Wunderground v.1.15,2013-08-10 21:14:00,
2013-08-10 16:20:00,78.4,59.3,30.12,NNW,347,3.0,3.0,52,0.00,,,0.00,Wunderground v.1.15,2013-08-10 21:20:00,
2013-08-10 16:25:00,78.8,59.1,30.12,NW,307,2.0,8.0,51,0.00,,,0.00,Wunderground v.1.15,2013-08-10 21:25:00,
2013-08-10 16:32:00,79.3,59.6,30.12,WNW,302,1.0,8.0,51,0.00,,,0.00,Wunderground v.1.15,2013-08-10 21:32:00,
2013-08-10 16:37:00,79.7,58.8,30.12,West,259,1.0,8.0,49,0.00,,,0.00,Wunderground v.1.15,2013-08-10 21:37:00,
2013-08-10 16:43:00,78.9,58.1,30.12,WNW,295,2.0,8.0,49,0.00,,,0.00,Wunderground v.1.15,2013-08-10 21:43:00,
2013-08-10 16:50:00,77.9,58.3,30.12,WSW,248,1.0,8.0,51,0.00,,,0.00,Wunderground v.1.15,2013-08-10 21:50:00,
2013-08-10 16:55:00,78.0,59.5,30.12,WSW,256,1.0,8.0,53,0.00,,,0.00,Wunderground v.1.15,2013-08-10 21:55:00,
2013-08-10 17:01:00,78.1,59.0,30.12,WSW,252,1.0,3.0,52,0.00,,,0.00,Wunderground v.1.15,2013-08-10 22:01:00,
2013-08-10 17:08:00,78.9,59.2,30.11,SW,233,1.0,8.0,51,0.00,,,0.00,Wunderground v.1.15,2013-08-10 22:08:00,
2013-08-10 17:13:00,79.2,59.5,30.11,WNW,302,1.0,8.0,51,0.00,,,0.00,Wunderground v.1.15,2013-08-10 22:13:00,
2013-08-10 17:19:00,79.3,58.5,30.11,WNW,302,2.0,8.0,49,0.00,,,0.00,Wunderground v.1.15,2013-08-10 22:19:00,
2013-08-10 17:26:00,78.4,58.8,30.11,West,273,2.0,8.0,51,0.00,,,0.00,Wunderground v.1.15,2013-08-10 22:26:00,
2013-08-10 17:31:00,78.6,59.0,30.11,SSW,201,2.0,3.0,51,0.00,,,0.00,Wunderground v.1.15,2013-08-10 22:31:00,
2013-08-10 17:38:00,79.6,59.9,30.11,West,277,1.0,8.0,51,0.00,,,0.00,Wunderground v.1.15,2013-08-10 22:38:00,
2013-08-10 17:44:00,78.5,59.4,30.11,NW,308,2.0,8.0,52,0.00,,,0.00,Wunderground v.1.15,2013-08-10 22:44:00,
2013-08-10 17:49:00,78.1,59.6,30.11,West,280,2.0,2.0,53,0.00,,,0.00,Wunderground v.1.15,2013-08-10 22:49:00,
2013-08-10 17:56:00,78.5,59.4,30.11,WSW,253,1.0,8.0,52,0.00,,,0.00,Wunderground v.1.15,2013-08-10 22:56:00,
2013-08-10 18:02:00,78.9,59.8,30.11,WSW,248,1.0,8.0,52,0.00,,,0.00,Wunderground v.1.15,2013-08-10 23:02:00,
2013-08-10 18:07:00,79.0,58.8,30.11,WSW,245,1.0,8.0,50,0.00,,,0.00,Wunderground v.1.15,2013-08-10 23:07:00,
2013-08-10 18:14:00,79.3,59.0,30.11,SW,218,1.0,8.0,50,0.00,,,0.00,Wunderground v.1.15,2013-08-10 23:14:00,
2013-08-10 18:20:00,79.3,59.6,30.10,WSW,255,1.0,8.0,51,0.00,,,0.00,Wunderground v.1.15,2013-08-10 23:20:00,
2013-08-10 18:25:00,79.7,60.0,30.10,SSE,154,1.0,8.0,51,0.00,,,0.00,Wunderground v.1.15,2013-08-10 23:25:00,
2013-08-10 18:31:00,79.9,59.6,30.10,WSW,240,0.0,8.0,50,0.00,,,0.00,Wunderground v.1.15,2013-08-10 23:31:00,
2013-08-10 18:38:00,79.8,58.9,30.10,WNW,293,0.0,8.0,49,0.00,,,0.00,Wunderground v.1.15,2013-08-10 23:38:00,
2013-08-10 18:43:00,79.9,59.0,30.10,NNE,23,0.0,8.0,49,0.00,,,0.00,Wunderground v.1.15,2013-08-10 23:43:00,
2013-08-10 18:50:00,79.6,60.4,30.10,WSW,255,0.0,8.0,52,0.00,,,0.00,Wunderground v.1.15,2013-08-10 23:50:00,
2013-08-10 18:55:00,79.5,59.8,30.09,WNW,300,0.0,8.0,51,0.00,,,0.00,Wunderground v.1.15,2013-08-10 23:55:00,
2013-08-10 19:01:00,79.6,59.3,30.09,West,281,0.0,8.0,50,0.00,,,0.00,Wunderground v.1.15,2013-08-11 00:01:00,
2013-08-10 19:07:00,79.8,60.1,30.09,NW,322,0.0,8.0,51,0.00,,,0.00,Wunderground v.1.15,2013-08-11 00:07:00,
2013-08-10 19:14:00,79.8,60.1,30.09,SW,222,0.0,8.0,51,0.00,,,0.00,Wunderground v.1.15,2013-08-11 00:14:00,
2013-08-10 19:19:00,79.4,60.2,30.09,WSW,248,0.0,8.0,52,0.00,,,0.00,Wunderground v.1.15,2013-08-11 00:19:00,
2013-08-10 19:25:00,79.2,60.1,30.09,WNW,286,0.0,8.0,52,0.00,,,0.00,Wunderground v.1.15,2013-08-11 00:25:00,
2013-08-10 19:32:00,79.4,60.2,30.09,WNW,287,0.0,8.0,52,0.00,,,0.00,Wunderground v.1.15,2013-08-11 00:32:00,
2013-08-10 19:37:00,79.2,60.6,30.09,WNW,287,0.0,8.0,53,0.00,,,0.00,Wunderground v.1.15,2013-08-11 00:37:00,
2013-08-10 19:44:00,78.7,61.2,30.09,WNW,287,0.0,8.0,55,0.00,,,0.00,Wunderground v.1.15,2013-08-11 00:44:00,
2013-08-10 19:50:00,77.5,60.6,30.09,WNW,287,0.0,8.0,56,0.00,,,0.00,Wunderground v.1.15,2013-08-11 00:50:00,
2013-08-10 19:55:00,76.2,60.8,30.09,WNW,286,0.0,8.0,59,0.00,,,0.00,Wunderground v.1.15,2013-08-11 00:55:00,
2013-08-10 20:02:00,75.0,60.2,30.09,WNW,287,0.0,8.0,60,0.00,,,0.00,Wunderground v.1.15,2013-08-11 01:02:00,
2013-08-10 20:08:00,74.3,60.4,30.09,WNW,286,0.0,8.0,62,0.00,,,0.00,Wunderground v.1.15,2013-08-11 01:08:00,
2013-08-10 20:13:00,73.9,60.5,30.09,WNW,286,0.0,8.0,63,0.00,,,0.00,Wunderground v.1.15,2013-08-11 01:13:00,
2013-08-10 20:19:00,73.4,60.9,30.09,WNW,286,0.0,8.0,65,0.00,,,0.00,Wunderground v.1.15,2013-08-11 01:19:00,
2013-08-10 20:26:00,73.1,61.1,30.09,WNW,286,0.0,8.0,66,0.00,,,0.00,Wunderground v.1.15,2013-08-11 01:26:00,
2013-08-10 20:31:00,73.0,61.0,30.08,ESE,118,0.0,8.0,66,0.00,,,0.00,Wunderground v.1.15,2013-08-11 01:31:00,
2013-08-10 20:38:00,73.1,61.1,30.08,ESE,117,0.0,8.0,66,0.00,,,0.00,Wunderground v.1.15,2013-08-11 01:38:00,
2013-08-10 20:44:00,73.1,61.1,30.08,ESE,117,0.0,8.0,66,0.00,,,0.00,Wunderground v.1.15,2013-08-11 01:44:00,
2013-08-10 20:49:00,72.9,61.3,30.08,ESE,120,0.0,8.0,67,0.00,,,0.00,Wunderground v.1.15,2013-08-11 01:49:00,
2013-08-10 20:56:00,72.7,60.7,30.08,SE,130,1.0,8.0,66,0.00,,,0.00,Wunderground v.1.15,2013-08-11 01:56:00,
2013-08-10 21:01:00,72.4,61.2,30.08,ESE,122,1.0,8.0,68,0.00,,,0.00,Wunderground v.1.15,2013-08-11 02:01:00,
2013-08-10 21:07:00,72.3,61.1,30.08,ESE,120,1.0,8.0,68,0.00,,,0.00,Wunderground v.1.15,2013-08-11 02:07:00,
2013-08-10 21:14:00,72.0,61.3,30.08,SE,129,1.0,8.0,69,0.00,,,0.00,Wunderground v.1.15,2013-08-11 02:14:00,
2013-08-10 21:19:00,71.7,61.8,30.08,ESE,113,1.0,1.0,71,0.00,,,0.00,Wunderground v.1.15,2013-08-11 02:19:00,
2013-08-10 21:25:00,71.4,61.1,30.08,ESE,119,0.0,8.0,70,0.00,,,0.00,Wunderground v.1.15,2013-08-11 02:25:00,
2013-08-10 21:31:00,71.3,61.4,30.08,ESE,110,0.0,8.0,71,0.00,,,0.00,Wunderground v.1.15,2013-08-11 02:31:00,
2013-08-10 21:37:00,71.1,61.2,30.08,ESE,110,0.0,8.0,71,0.00,,,0.00,Wunderground v.1.15,2013-08-11 02:37:00,
2013-08-10 21:44:00,71.0,61.5,30.08,ESE,121,0.0,8.0,72,0.00,,,0.00,Wunderground v.1.15,2013-08-11 02:44:00,
2013-08-10 21:49:00,70.8,61.3,30.09,ESE,121,0.0,8.0,72,0.00,,,0.00,Wunderground v.1.15,2013-08-11 02:49:00,
2013-08-10 21:56:00,70.6,61.5,30.09,SE,132,0.0,8.0,73,0.00,,,0.00,Wunderground v.1.15,2013-08-11 02:56:00,
2013-08-10 22:02:00,70.4,61.3,30.09,SE,128,0.0,8.0,73,0.00,,,0.00,Wunderground v.1.15,2013-08-11 03:02:00,
2013-08-10 22:09:00,70.3,61.2,30.09,SE,131,1.0,1.0,73,0.00,,,0.00,Wunderground v.1.15,2013-08-11 03:09:00,
2013-08-10 22:16:00,70.2,61.1,30.09,SE,136,0.0,8.0,73,0.00,,,0.00,Wunderground v.1.15,2013-08-11 03:16:00,
2013-08-10 22:21:00,70.0,60.9,30.09,SE,124,0.0,8.0,73,0.00,,,0.00,Wunderground v.1.15,2013-08-11 03:21:00,
2013-08-10 22:28:00,70.2,61.1,30.09,SE,145,0.0,8.0,73,0.00,,,0.00,Wunderground v.1.15,2013-08-11 03:28:00,
2013-08-10 22:34:00,70.0,60.6,30.09,SE,125,0.0,8.0,72,0.00,,,0.00,Wunderground v.1.15,2013-08-11 03:34:00,
2013-08-10 22:40:00,69.7,60.7,30.08,ESE,123,0.0,8.0,73,0.00,,,0.00,Wunderground v.1.15,2013-08-11 03:40:00,
2013-08-10 22:45:00,69.4,60.4,30.08,SE,129,0.0,8.0,73,0.00,,,0.00,Wunderground v.1.15,2013-08-11 03:45:00,
2013-08-10 22:51:00,69.1,60.5,30.09,SE,146,0.0,8.0,74,0.00,,,0.00,Wunderground v.1.15,2013-08-11 03:51:00,
2013-08-10 22:58:00,69.0,60.7,30.09,SE,139,1.0,8.0,75,0.00,,,0.00,Wunderground v.1.15,2013-08-11 03:58:00,
2013-08-10 23:01:00,68.8,60.9,30.08,SE,139,1.0,8.0,76,0.00,,,0.00,Wunderground v.1.15,2013-08-11 04:01:00,
2013-08-10 23:05:00,68.7,60.8,30.09,SSE,152,1.0,8.0,76,0.00,,,0.00,Wunderground v.1.15,2013-08-11 04:05:00,
2013-08-10 23:08:00,68.6,60.7,30.09,SE,131,1.0,8.0,76,0.00,,,0.00,Wunderground v.1.15,2013-08-11 04:08:00,
2013-08-10 23:14:00,68.5,60.6,30.08,SE,132,1.0,8.0,76,0.00,,,0.00,Wunderground v.1.15,2013-08-11 04:14:00,
2013-08-10 23:17:00,68.5,61.0,30.08,SE,131,1.0,8.0,77,0.00,,,0.00,Wunderground v.1.15,2013-08-11 04:17:00,
2013-08-10 23:21:00,68.4,60.9,30.08,ESE,122,1.0,8.0,77,0.00,,,0.00,Wunderground v.1.15,2013-08-11 04:21:00,
2013-08-10 23:28:00,68.2,60.7,30.09,SE,133,1.0,8.0,77,0.00,,,0.00,Wunderground v.1.15,2013-08-11 04:28:00,
2013-08-10 23:33:00,68.0,60.5,30.09,SE,139,0.0,8.0,77,0.00,,,0.00,Wunderground v.1.15,2013-08-11 04:33:00,
2013-08-10 23:39:00,67.8,60.3,30.09,SE,135,0.0,8.0,77,0.00,,,0.00,Wunderground v.1.15,2013-08-11 04:39:00,
2013-08-10 23:46:00,67.6,60.1,30.09,SE,126,0.0,8.0,77,0.00,,,0.00,Wunderground v.1.15,2013-08-11 04:46:00,
2013-08-10 23:51:00,67.6,60.1,30.09,SE,133,0.0,8.0,77,0.00,,,0.00,Wunderground v.1.15,2013-08-11 04:51:00,
2013-08-10 23:57:00,67.5,60.0,30.10,ESE,123,0.0,8.0,77,0.00,,,0.00,Wunderground v.1.15,2013-08-11 04:57:00,